START_TIME,STEP,MOV.,AL01,t_acc.,AL02,t_acc.,E37,t_acc.,H21,t_acc.
1979-07-20 09:00:18.490 ,0,0,1.,24.0,0.,24.0,1.,24.0,0.,24.0
1979-07-20 09:00:34.090 ,0,0,0.,24.0,0.,24.0,1.,24.0,0.,24.0
1979-07-20 09:01:02.890 ,0,0,0.,24.0,0.,24.0,4.,24.0,0.,24.0
1979-07-20 09:01:22.090 ,0,0,1.,24.0,0.,24.0,2.,24.0,0.,24.0
1979-07-20 09:01:46.090 ,0,0,1.,24.0,0.,24.0,1.,24.0,0.,24.0
1979-07-20 09:02:10.090 ,0,0,0.,24.0,0.,24.0,1.,24.0,0.,24.0
1979-07-20 09:02:34.090 ,0,0,0.,24.0,0.,24.0,0.,24.0,0.,24.0
1979-07-20 09:02:58.090 ,0,0,,0,,0,,0,,0
1979-07-20 09:06:44.280 ,7,0,7.,24.0,0.,24.0,2.,24.0,0.,24.0
1979-07-20 09:06:58.080 ,7,0,39.,24.0,0.,24.0,4.,24.0,0.,24.0
1979-07-20 09:07:22.080 ,5,1,16.,24.0,0.,24.0,1.,24.0,0.,24.0
1979-07-20 09:07:46.080 ,0,0,,0,,0,,0,,0
1979-07-20 09:09:08.280 ,0,0,11.,24.0,0.,24.0,1.,24.0,0.,24.0
1979-07-20 09:09:22.080 ,1,1,0.,24.0,0.,24.0,3.,24.0,0.,24.0
1979-07-20 09:09:46.080 ,2,1,0.,24.0,0.,24.0,2.,24.0,0.,24.0
1979-07-20 09:10:10.080 ,6,1,2.,24.0,0.,24.0,0.,24.0,0.,24.0
1979-07-20 09:10:34.080 ,5,1,6.,24.0,0.,24.0,2.,24.0,0.,24.0
1979-07-20 09:10:58.080 ,1,1,0.,24.0,0.,24.0,3.,24.0,0.,24.0
1979-07-20 09:11:22.080 ,2,1,0.,24.0,0.,24.0,2.,24.0,0.,24.0
1979-07-20 09:11:46.080 ,6,1,1.,24.0,0.,24.0,3.,24.0,0.,24.0
1979-07-20 09:12:10.080 ,5,1,16.,24.0,0.,24.0,2.,24.0,0.,24.0
1979-07-20 09:12:34.080 ,1,1,0.,24.0,0.,24.0,1.,24.0,0.,24.0
1979-07-20 09:12:58.080 ,2,1,2.,24.0,0.,24.0,3.,24.0,0.,24.0
1979-07-20 09:13:22.080 ,6,1,1.,24.0,0.,24.0,1.,24.0,0.,24.0
1979-07-20 09:13:46.080 ,5,1,12.,24.0,0.,24.0,0.,24.0,0.,24.0
1979-07-20 09:14:10.080 ,1,1,0.,24.0,0.,24.0,0.,24.0,0.,24.0
1979-07-20 09:14:34.080 ,2,1,0.,24.0,0.,24.0,2.,24.0,0.,24.0
1979-07-20 09:14:58.080 ,6,1,0.,24.0,0.,24.0,7.,24.0,0.,24.0
1979-07-20 09:15:22.080 ,5,1,15.,24.0,0.,24.0,2.,24.0,0.,24.0
1979-07-20 09:15:46.080 ,1,1,1.,24.0,0.,24.0,3.,24.0,0.,24.0
1979-07-20 09:16:10.080 ,2,1,0.,24.0,0.,24.0,4.,24.0,0.,24.0
1979-07-20 09:16:34.080 ,6,1,0.,24.0,0.,24.0,1.,24.0,0.,24.0
1979-07-20 09:16:58.080 ,5,1,13.,24.0,0.,24.0,4.,24.0,0.,24.0
1979-07-20 09:17:22.080 ,1,1,0.,24.0,1.,24.0,5.,24.0,0.,24.0
1979-07-20 09:17:46.080 ,0,0,0.,24.0,0.,24.0,2.,24.0,0.,24.0
1979-07-20 09:18:10.080 ,0,0,1.,24.0,0.,24.0,3.,24.0,0.,24.0
1979-07-20 09:18:34.080 ,5,1,18.,24.0,0.,24.0,1.,24.0,0.,24.0
1979-07-20 09:18:58.080 ,5,0,0.,24.0,0.,24.0,3.,24.0,0.,24.0
1979-07-20 09:19:22.080 ,4,1,0.,24.0,0.,24.0,0.,24.0,0.,24.0
1979-07-20 09:19:46.080 ,4,0,0.,24.0,0.,24.0,1.,24.0,0.,24.0
1979-07-20 09:20:10.080 ,3,1,1.,24.0,0.,24.0,2.,24.0,0.,24.0
1979-07-20 09:20:34.080 ,3,0,0.,24.0,0.,24.0,0.,24.0,0.,24.0
1979-07-20 09:20:58.080 ,2,1,0.,24.0,0.,24.0,1.,24.0,0.,24.0
1979-07-20 09:21:22.080 ,2,0,0.,24.0,0.,24.0,1.,24.0,0.,24.0
1979-07-20 09:21:46.080 ,1,1,0.,24.0,0.,24.0,2.,24.0,0.,24.0
1979-07-20 09:22:10.080 ,1,0,0.,24.0,1.,24.0,1.,24.0,0.,24.0
1979-07-20 09:22:34.080 ,0,1,0.,24.0,0.,24.0,1.,24.0,0.,24.0
1979-07-20 09:22:58.080 ,0,0,1.,24.0,1.,24.0,2.,24.0,0.,24.0
1979-07-20 09:23:22.080 ,0,1,1.,24.0,0.,24.0,5.,24.0,0.,24.0
1979-07-20 09:23:46.080 ,0,0,0.,24.0,1.,24.0,4.,24.0,0.,24.0
1979-07-20 09:24:10.080 ,1,1,0.,24.0,0.,24.0,3.,24.0,0.,24.0
1979-07-20 09:24:34.080 ,1,0,0.,24.0,0.,24.0,3.,24.0,0.,24.0
1979-07-20 09:24:58.080 ,2,1,0.,24.0,0.,24.0,1.,24.0,0.,24.0
1979-07-20 09:25:22.080 ,2,0,0.,24.0,0.,24.0,2.,24.0,0.,24.0
1979-07-20 09:25:46.080 ,3,1,0.,24.0,0.,24.0,2.,24.0,0.,24.0
1979-07-20 09:26:10.080 ,3,0,0.,24.0,0.,24.0,1.,24.0,0.,24.0
1979-07-20 09:26:34.080 ,4,1,2.,24.0,0.,24.0,0.,24.0,0.,24.0
1979-07-20 09:26:58.080 ,4,0,0.,24.0,0.,24.0,3.,24.0,0.,24.0
1979-07-20 09:27:22.080 ,5,1,0.,24.0,0.,24.0,0.,24.0,0.,24.0
1979-07-20 09:27:46.080 ,5,0,0.,24.0,0.,24.0,0.,24.0,0.,24.0
1979-07-20 09:28:10.080 ,6,1,2.,24.0,0.,24.0,0.,24.0,0.,24.0
1979-07-20 09:28:34.080 ,6,0,0.,24.0,1.,24.0,0.,24.0,0.,24.0
1979-07-20 09:28:58.080 ,7,1,7.,24.0,0.,24.0,3.,24.0,0.,24.0
1979-07-20 09:29:22.080 ,7,0,23.,24.0,0.,24.0,2.,24.0,0.,24.0
1979-07-20 09:29:46.080 ,7,1,22.,24.0,0.,24.0,1.,24.0,0.,24.0
1979-07-20 09:30:10.080 ,7,0,34.,24.0,0.,24.0,1.,24.0,0.,24.0
1979-07-20 09:30:34.080 ,6,1,14.,24.0,0.,24.0,1.,24.0,0.,24.0
1979-07-20 09:30:58.080 ,6,0,2.,24.0,0.,24.0,0.,24.0,0.,24.0
1979-07-20 09:31:22.080 ,5,1,0.,24.0,0.,24.0,1.,24.0,0.,24.0
1979-07-20 09:31:46.080 ,5,0,0.,24.0,0.,24.0,0.,24.0,0.,24.0
1979-07-20 09:32:10.080 ,4,1,0.,24.0,1.,24.0,2.,24.0,0.,24.0
1979-07-20 09:32:34.080 ,4,0,0.,24.0,0.,24.0,1.,24.0,0.,24.0
1979-07-20 09:32:58.080 ,3,1,0.,24.0,0.,24.0,2.,24.0,0.,24.0
1979-07-20 09:33:22.080 ,3,0,1.,24.0,0.,24.0,0.,24.0,0.,24.0
1979-07-20 09:33:46.080 ,2,1,0.,24.0,0.,24.0,0.,24.0,0.,24.0
1979-07-20 09:34:10.080 ,2,0,1.,24.0,0.,24.0,0.,24.0,0.,24.0
1979-07-20 09:34:34.080 ,1,1,0.,24.0,0.,24.0,1.,24.0,0.,24.0
1979-07-20 09:34:58.080 ,1,0,0.,24.0,0.,24.0,3.,24.0,0.,24.0
1979-07-20 09:35:22.080 ,0,1,1.,24.0,0.,24.0,0.,24.0,0.,24.0
1979-07-20 09:35:46.080 ,0,0,0.,24.0,1.,24.0,0.,24.0,0.,24.0
1979-07-20 09:36:10.080 ,0,1,0.,24.0,0.,24.0,0.,24.0,0.,24.0
1979-07-20 09:36:34.080 ,0,0,1.,24.0,0.,24.0,0.,24.0,0.,24.0
1979-07-20 09:36:58.080 ,1,1,0.,24.0,0.,24.0,0.,24.0,0.,24.0
1979-07-20 09:37:22.080 ,1,0,1.,24.0,0.,24.0,0.,24.0,0.,24.0
1979-07-20 09:37:46.080 ,2,1,1.,24.0,0.,24.0,1.,24.0,0.,24.0
1979-07-20 09:38:10.080 ,2,0,1.,24.0,0.,24.0,0.,24.0,0.,24.0
1979-07-20 09:38:34.080 ,3,1,0.,24.0,0.,24.0,1.,24.0,0.,24.0
1979-07-20 09:38:58.080 ,3,0,0.,24.0,0.,24.0,0.,24.0,0.,24.0
1979-07-20 09:39:22.080 ,4,1,0.,24.0,0.,24.0,3.,24.0,0.,24.0
1979-07-20 09:39:46.080 ,4,0,1.,24.0,0.,24.0,1.,24.0,0.,24.0
1979-07-20 09:40:10.080 ,5,1,0.,24.0,0.,24.0,1.,24.0,0.,24.0
1979-07-20 09:40:34.080 ,5,0,1.,24.0,0.,24.0,2.,24.0,0.,24.0
1979-07-20 09:40:58.080 ,6,1,1.,24.0,0.,24.0,1.,24.0,0.,24.0
1979-07-20 09:41:22.080 ,6,0,0.,24.0,0.,24.0,0.,24.0,0.,24.0
1979-07-20 09:41:46.080 ,7,1,12.,24.0,1.,24.0,0.,24.0,0.,24.0
1979-07-20 09:42:10.080 ,7,0,35.,24.0,0.,24.0,2.,24.0,0.,24.0
1979-07-20 09:42:34.080 ,7,1,31.,24.0,0.,24.0,1.,24.0,0.,24.0
1979-07-20 09:42:58.080 ,7,0,35.,24.0,0.,24.0,1.,24.0,0.,24.0
1979-07-20 09:43:22.080 ,6,1,21.,24.0,0.,24.0,1.,24.0,0.,24.0
1979-07-20 09:43:46.080 ,6,0,1.,24.0,0.,24.0,1.,24.0,0.,24.0
1979-07-20 09:44:10.080 ,5,1,0.,24.0,0.,24.0,0.,24.0,0.,24.0
1979-07-20 09:44:34.080 ,5,0,0.,24.0,0.,24.0,0.,24.0,0.,24.0
1979-07-20 09:44:58.080 ,4,1,0.,24.0,0.,24.0,0.,24.0,0.,24.0
1979-07-20 09:45:22.080 ,4,0,0.,24.0,0.,24.0,2.,24.0,0.,24.0
1979-07-20 09:45:46.080 ,3,1,0.,24.0,0.,24.0,0.,24.0,0.,24.0
1979-07-20 09:46:10.080 ,3,0,0.,24.0,1.,24.0,0.,24.0,0.,24.0
1979-07-20 09:46:34.080 ,2,1,0.,24.0,0.,24.0,1.,24.0,0.,24.0
1979-07-20 09:46:58.080 ,2,0,0.,24.0,0.,24.0,0.,24.0,0.,24.0
1979-07-20 09:47:22.080 ,1,1,0.,24.0,0.,24.0,3.,24.0,0.,24.0
1979-07-20 09:47:46.080 ,1,0,0.,24.0,0.,24.0,2.,24.0,0.,24.0
1979-07-20 09:48:10.080 ,0,1,1.,24.0,0.,24.0,0.,24.0,0.,24.0
1979-07-20 09:48:34.080 ,0,0,1.,24.0,0.,24.0,1.,24.0,0.,24.0
1979-07-20 09:48:58.080 ,0,1,0.,24.0,1.,24.0,1.,24.0,0.,24.0
1979-07-20 09:49:22.080 ,0,0,0.,24.0,0.,24.0,0.,24.0,0.,24.0
1979-07-20 09:49:46.080 ,1,1,1.,24.0,1.,24.0,1.,24.0,0.,24.0
1979-07-20 09:50:10.080 ,1,0,,0,,0,,0,,0
1979-07-20 09:50:34.080 ,0,0,0.,24.0,0.,24.0,1.,24.0,0.,24.0
1979-07-20 09:50:58.080 ,0,0,0.,24.0,0.,24.0,0.,24.0,0.,24.0
1979-07-20 09:51:22.080 ,3,1,1.,24.0,0.,24.0,0.,24.0,0.,24.0
1979-07-20 09:51:46.080 ,3,0,1.,24.0,0.,24.0,0.,24.0,0.,24.0
1979-07-20 09:52:10.080 ,4,1,0.,24.0,1.,24.0,0.,24.0,0.,24.0
1979-07-20 09:52:34.080 ,4,0,1.,24.0,0.,24.0,1.,24.0,0.,24.0
1979-07-20 09:52:58.080 ,5,1,0.,24.0,0.,24.0,0.,24.0,0.,24.0
1979-07-20 09:53:22.080 ,5,0,0.,24.0,0.,24.0,2.,24.0,0.,24.0
1979-07-20 09:53:46.080 ,6,1,0.,24.0,0.,24.0,0.,24.0,0.,24.0
1979-07-20 09:54:10.080 ,6,0,0.,24.0,2.,24.0,0.,24.0,0.,24.0
1979-07-20 09:55:22.080 ,0,0,16.,24.0,0.,24.0,0.,24.0,0.,24.0
1979-07-20 09:55:46.080 ,1,1,0.,24.0,0.,24.0,0.,24.0,0.,24.0
1979-07-20 09:56:10.080 ,2,1,0.,24.0,0.,24.0,0.,24.0,0.,24.0
1979-07-20 09:56:34.080 ,6,1,1.,24.0,0.,24.0,0.,24.0,0.,24.0
1979-07-20 09:56:58.080 ,5,1,21.,24.0,0.,24.0,0.,24.0,0.,24.0
1979-07-20 09:57:22.080 ,1,1,0.,24.0,0.,24.0,1.,24.0,0.,24.0
1979-07-20 09:57:46.080 ,0,0,0.,24.0,1.,24.0,1.,24.0,0.,24.0
1979-07-20 09:58:10.080 ,6,1,0.,24.0,0.,24.0,0.,24.0,0.,24.0
1979-07-20 09:58:34.080 ,0,0,15.,24.0,0.,24.0,0.,24.0,0.,24.0
1979-07-20 09:58:58.080 ,0,0,0.,24.0,0.,24.0,0.,24.0,0.,24.0
1979-07-20 09:59:22.080 ,2,1,0.,24.0,0.,24.0,0.,24.0,0.,24.0
1979-07-20 09:59:46.080 ,6,1,0.,24.0,0.,24.0,1.,24.0,0.,24.0
1979-07-20 10:00:10.080 ,5,1,14.,24.0,0.,24.0,1.,24.0,0.,24.0
1979-07-20 10:00:34.080 ,1,1,0.,24.0,0.,24.0,0.,24.0,0.,24.0
1979-07-20 10:00:58.080 ,2,1,1.,24.0,0.,24.0,1.,24.0,0.,24.0
1979-07-20 10:01:22.080 ,6,1,1.,24.0,0.,24.0,1.,24.0,0.,24.0
1979-07-20 10:01:46.080 ,5,1,17.,24.0,0.,24.0,0.,24.0,0.,24.0
1979-07-20 10:02:10.080 ,1,1,0.,24.0,0.,24.0,0.,24.0,0.,24.0
1979-07-20 10:02:34.080 ,2,1,0.,24.0,0.,24.0,0.,24.0,0.,24.0
1979-07-20 10:02:58.080 ,6,1,0.,24.0,0.,24.0,0.,24.0,0.,24.0
1979-07-20 10:03:22.080 ,5,1,24.,24.0,0.,24.0,1.,24.0,0.,24.0
1979-07-20 10:03:46.080 ,1,1,0.,24.0,0.,24.0,1.,24.0,0.,24.0
1979-07-20 10:04:10.080 ,2,1,1.,24.0,0.,24.0,1.,24.0,0.,24.0
1979-07-20 10:04:34.080 ,6,1,0.,24.0,0.,24.0,0.,24.0,0.,24.0
1979-07-20 10:04:58.080 ,5,1,16.,24.0,0.,24.0,0.,24.0,0.,24.0
1979-07-20 10:05:22.080 ,1,1,0.,24.0,0.,24.0,0.,24.0,0.,24.0
1979-07-20 10:05:46.080 ,0,0,0.,24.0,0.,24.0,0.,24.0,0.,24.0
1979-07-20 10:06:10.080 ,0,0,0.,24.0,0.,24.0,0.,24.0,0.,24.0
1979-07-20 10:06:34.080 ,5,1,20.,24.0,0.,24.0,0.,24.0,0.,24.0
1979-07-20 10:06:58.080 ,5,0,2.,24.0,0.,24.0,1.,24.0,0.,24.0
1979-07-20 10:07:22.080 ,4,1,0.,24.0,0.,24.0,0.,24.0,0.,24.0
1979-07-20 10:07:46.080 ,4,0,1.,24.0,0.,24.0,0.,24.0,0.,24.0
1979-07-20 10:08:10.080 ,3,1,0.,24.0,1.,24.0,0.,24.0,0.,24.0
1979-07-20 10:08:34.080 ,3,0,0.,24.0,0.,24.0,1.,24.0,0.,24.0
1979-07-20 10:08:58.080 ,2,1,0.,24.0,0.,24.0,0.,24.0,0.,24.0
1979-07-20 10:09:22.080 ,2,0,0.,24.0,0.,24.0,2.,24.0,0.,24.0
1979-07-20 10:09:46.080 ,1,1,0.,24.0,0.,24.0,0.,24.0,0.,24.0
1979-07-20 10:10:10.080 ,1,0,0.,24.0,1.,24.0,2.,24.0,0.,24.0
1979-07-20 10:10:34.080 ,0,1,0.,24.0,0.,24.0,1.,24.0,0.,24.0
1979-07-20 10:10:58.080 ,0,0,0.,24.0,0.,24.0,0.,24.0,0.,24.0
1979-07-20 10:11:22.080 ,0,1,0.,24.0,0.,24.0,0.,24.0,0.,24.0
1979-07-20 10:11:46.080 ,0,0,0.,24.0,0.,24.0,1.,24.0,0.,24.0
1979-07-20 10:12:10.080 ,1,1,0.,24.0,0.,24.0,0.,24.0,0.,24.0
1979-07-20 10:12:34.080 ,1,0,0.,24.0,0.,24.0,1.,24.0,0.,24.0
1979-07-20 10:12:58.080 ,2,1,1.,24.0,0.,24.0,0.,24.0,0.,24.0
1979-07-20 10:13:22.080 ,2,0,1.,24.0,0.,24.0,0.,24.0,0.,24.0
1979-07-20 10:13:46.080 ,3,1,0.,24.0,0.,24.0,0.,24.0,0.,24.0
1979-07-20 10:14:10.080 ,3,0,0.,24.0,0.,24.0,1.,24.0,0.,24.0
1979-07-20 10:14:34.080 ,4,1,0.,24.0,0.,24.0,0.,24.0,0.,24.0
1979-07-20 10:14:58.080 ,0,0,0.,24.0,0.,24.0,0.,24.0,0.,24.0
1979-07-20 10:15:22.080 ,5,1,0.,24.0,0.,24.0,1.,24.0,0.,24.0
1979-07-20 10:15:46.080 ,5,0,0.,24.0,0.,24.0,0.,24.0,0.,24.0
1979-07-20 10:16:10.080 ,6,1,0.,24.0,0.,24.0,0.,24.0,0.,24.0
1979-07-20 10:16:34.080 ,6,0,1.,24.0,0.,24.0,1.,24.0,0.,24.0
1979-07-20 10:16:58.080 ,7,1,6.,24.0,0.,24.0,1.,24.0,0.,24.0
1979-07-20 10:17:22.080 ,7,0,30.,24.0,0.,24.0,0.,24.0,0.,24.0
1979-07-20 10:17:46.080 ,7,1,39.,24.0,0.,24.0,1.,24.0,0.,24.0
1979-07-20 10:18:10.080 ,7,0,41.,24.0,1.,24.0,1.,24.0,0.,24.0
1979-07-20 10:18:34.080 ,6,1,29.,24.0,0.,24.0,0.,24.0,0.,24.0
1979-07-20 10:18:58.080 ,6,0,0.,24.0,0.,24.0,1.,24.0,0.,24.0
1979-07-20 10:19:22.080 ,5,1,0.,24.0,0.,24.0,1.,24.0,0.,24.0
1979-07-20 10:19:46.080 ,5,0,0.,24.0,0.,24.0,1.,24.0,0.,24.0
1979-07-20 10:20:10.080 ,4,1,1.,24.0,0.,24.0,0.,24.0,0.,24.0
1979-07-20 10:20:34.080 ,4,0,0.,24.0,0.,24.0,0.,24.0,0.,24.0
1979-07-20 10:20:58.080 ,3,1,1.,24.0,0.,24.0,0.,24.0,0.,24.0
1979-07-20 10:21:22.080 ,3,0,0.,24.0,0.,24.0,0.,24.0,0.,24.0
1979-07-20 10:21:46.080 ,2,1,0.,24.0,0.,24.0,3.,24.0,0.,24.0
1979-07-20 10:22:10.080 ,2,0,0.,24.0,0.,24.0,0.,24.0,0.,24.0
1979-07-20 10:22:34.080 ,1,1,0.,24.0,0.,24.0,0.,24.0,0.,24.0
1979-07-20 10:22:58.080 ,1,0,1.,24.0,0.,24.0,1.,24.0,0.,24.0
1979-07-20 10:23:22.080 ,0,1,0.,24.0,0.,24.0,2.,24.0,0.,24.0
1979-07-20 10:23:46.080 ,0,0,0.,24.0,0.,24.0,0.,24.0,0.,24.0
1979-07-20 10:24:10.080 ,0,1,0.,24.0,0.,24.0,0.,24.0,0.,24.0
1979-07-20 10:24:34.080 ,0,0,0.,24.0,0.,24.0,1.,24.0,0.,24.0
1979-07-20 10:24:58.080 ,1,1,0.,24.0,0.,24.0,0.,24.0,0.,24.0
1979-07-20 10:25:22.080 ,1,0,0.,24.0,0.,24.0,0.,24.0,0.,24.0
1979-07-20 10:25:46.080 ,2,1,0.,24.0,0.,24.0,0.,24.0,0.,24.0
1979-07-20 10:26:10.080 ,2,0,0.,24.0,0.,24.0,0.,24.0,0.,24.0
1979-07-20 10:26:34.080 ,3,1,0.,24.0,0.,24.0,0.,24.0,0.,24.0
1979-07-20 10:26:58.080 ,3,0,0.,24.0,0.,24.0,0.,24.0,0.,24.0
1979-07-20 10:27:22.080 ,4,1,0.,24.0,0.,24.0,0.,24.0,0.,24.0
1979-07-20 10:27:46.080 ,4,0,0.,24.0,0.,24.0,0.,24.0,0.,24.0
1979-07-20 10:28:10.080 ,5,1,0.,24.0,0.,24.0,0.,24.0,0.,24.0
1979-07-20 10:28:34.080 ,5,0,0.,24.0,0.,24.0,0.,24.0,0.,24.0
1979-07-20 10:28:58.080 ,6,1,0.,24.0,0.,24.0,0.,24.0,0.,24.0
1979-07-20 10:29:22.080 ,6,0,0.,24.0,1.,24.0,0.,24.0,0.,24.0
1979-07-20 10:29:46.080 ,7,1,4.,24.0,0.,24.0,0.,24.0,0.,24.0
1979-07-20 10:30:10.080 ,7,0,43.,24.0,1.,24.0,0.,24.0,0.,24.0
1979-07-20 10:30:34.080 ,7,1,35.,24.0,0.,24.0,1.,24.0,0.,24.0
1979-07-20 10:30:58.080 ,7,0,35.,24.0,0.,24.0,0.,24.0,0.,24.0
1979-07-20 10:31:22.080 ,6,1,21.,24.0,0.,24.0,0.,24.0,0.,24.0
1979-07-20 10:31:46.080 ,6,0,0.,24.0,1.,24.0,0.,24.0,0.,24.0
1979-07-20 10:32:10.080 ,5,1,0.,24.0,0.,24.0,0.,24.0,0.,24.0
1979-07-20 10:32:34.080 ,5,0,0.,24.0,0.,24.0,0.,24.0,0.,24.0
1979-07-20 10:32:58.080 ,4,1,0.,24.0,1.,24.0,0.,24.0,0.,24.0
1979-07-20 10:33:22.080 ,4,0,0.,24.0,0.,24.0,0.,24.0,0.,24.0
1979-07-20 10:33:46.080 ,3,1,0.,24.0,0.,24.0,0.,24.0,0.,24.0
1979-07-20 10:34:10.080 ,3,0,0.,24.0,0.,24.0,0.,24.0,0.,24.0
1979-07-20 10:34:34.080 ,2,1,0.,24.0,0.,24.0,0.,24.0,0.,24.0
1979-07-20 10:34:58.080 ,2,0,0.,24.0,0.,24.0,1.,24.0,0.,24.0
1979-07-20 10:35:22.080 ,1,1,0.,24.0,0.,24.0,0.,24.0,0.,24.0
1979-07-20 10:35:46.080 ,1,0,0.,24.0,0.,24.0,0.,24.0,0.,24.0
1979-07-20 10:36:10.080 ,0,1,0.,24.0,0.,24.0,0.,24.0,0.,24.0
1979-07-20 10:36:34.080 ,0,0,0.,24.0,0.,24.0,0.,24.0,0.,24.0
1979-07-20 10:36:58.080 ,0,1,0.,24.0,0.,24.0,0.,24.0,0.,24.0
1979-07-20 10:37:22.080 ,0,0,0.,24.0,0.,24.0,0.,24.0,0.,24.0
1979-07-20 10:37:46.080 ,1,1,0.,24.0,0.,24.0,0.,24.0,0.,24.0
1979-07-20 10:38:10.080 ,1,0,1.,24.0,0.,24.0,0.,24.0,0.,24.0
1979-07-20 10:38:34.080 ,2,1,1.,24.0,1.,24.0,1.,24.0,0.,24.0
1979-07-20 10:38:58.080 ,2,0,0.,24.0,0.,24.0,0.,24.0,0.,24.0
1979-07-20 10:39:22.080 ,3,1,0.,24.0,0.,24.0,2.,24.0,0.,24.0
1979-07-20 10:39:46.080 ,3,0,1.,24.0,1.,24.0,1.,24.0,0.,24.0
1979-07-20 10:40:10.080 ,4,1,0.,24.0,0.,24.0,0.,24.0,0.,24.0
1979-07-20 10:40:34.080 ,4,0,0.,24.0,1.,24.0,2.,24.0,0.,24.0
1979-07-20 10:40:58.080 ,5,1,0.,24.0,0.,24.0,1.,24.0,0.,24.0
1979-07-20 10:41:22.080 ,5,0,0.,24.0,0.,24.0,0.,24.0,0.,24.0
1979-07-20 10:41:46.080 ,6,1,0.,24.0,0.,24.0,1.,24.0,0.,24.0
1979-07-20 10:42:10.080 ,6,0,0.,24.0,0.,24.0,0.,24.0,0.,24.0
1979-07-20 10:42:34.080 ,7,0,9.,24.0,0.,24.0,1.,24.0,0.,24.0
1979-07-20 10:42:58.080 ,7,0,31.,24.0,0.,24.0,0.,24.0,0.,24.0
1979-07-20 10:43:22.080 ,5,1,16.,24.0,0.,24.0,0.,24.0,0.,24.0
1979-07-20 10:43:46.080 ,1,1,0.,24.0,0.,24.0,1.,24.0,0.,24.0
1979-07-20 10:44:10.080 ,2,1,0.,24.0,0.,24.0,0.,24.0,0.,24.0
1979-07-20 10:44:34.080 ,6,1,0.,24.0,1.,24.0,0.,24.0,0.,24.0
1979-07-20 10:44:58.080 ,5,1,16.,24.0,0.,24.0,0.,24.0,0.,24.0
1979-07-20 10:45:22.080 ,1,1,0.,24.0,0.,24.0,1.,24.0,0.,24.0
1979-07-20 10:45:46.080 ,2,1,0.,24.0,0.,24.0,0.,24.0,0.,24.0
1979-07-20 10:46:10.080 ,6,1,0.,24.0,0.,24.0,0.,24.0,0.,24.0
1979-07-20 10:46:34.080 ,5,1,15.,24.0,0.,24.0,1.,24.0,0.,24.0
1979-07-20 10:46:58.080 ,1,1,,0,,0,,0,,0
1979-07-20 10:47:22.080 ,2,1,0.,24.0,0.,24.0,0.,24.0,0.,24.0
1979-07-20 10:47:46.080 ,6,1,1.,24.0,0.,24.0,1.,24.0,0.,24.0
1979-07-20 10:48:10.080 ,5,1,13.,24.0,0.,24.0,0.,24.0,0.,24.0
1979-07-20 10:48:34.080 ,1,1,0.,24.0,0.,24.0,0.,24.0,0.,24.0
1979-07-20 10:48:58.080 ,2,1,1.,24.0,0.,24.0,0.,24.0,0.,24.0
1979-07-20 10:49:22.080 ,6,1,0.,24.0,0.,24.0,1.,24.0,0.,24.0
1979-07-20 10:49:46.080 ,5,1,19.,24.0,0.,24.0,1.,24.0,0.,24.0
1979-07-20 10:50:10.080 ,1,1,0.,24.0,0.,24.0,0.,24.0,0.,24.0
1979-07-20 10:50:34.080 ,2,1,0.,24.0,1.,24.0,0.,24.0,0.,24.0
1979-07-20 10:50:58.080 ,6,1,0.,24.0,0.,24.0,0.,24.0,0.,24.0
1979-07-20 10:51:22.080 ,5,1,20.,24.0,0.,24.0,0.,24.0,0.,24.0
1979-07-20 10:51:46.080 ,1,1,2.,24.0,0.,24.0,0.,24.0,0.,24.0
1979-07-20 10:52:10.080 ,2,1,1.,24.0,0.,24.0,0.,24.0,0.,24.0
1979-07-20 10:52:34.080 ,6,1,0.,24.0,0.,24.0,0.,24.0,0.,24.0
1979-07-20 10:52:58.080 ,5,1,6.,24.0,0.,24.0,0.,24.0,0.,24.0
1979-07-20 10:53:22.080 ,1,1,0.,24.0,0.,24.0,1.,24.0,0.,24.0
1979-07-20 10:53:46.080 ,0,0,0.,24.0,0.,24.0,0.,24.0,0.,24.0
1979-07-20 10:54:10.080 ,0,0,0.,24.0,0.,24.0,0.,24.0,0.,24.0
1979-07-20 10:54:34.080 ,5,1,13.,24.0,0.,24.0,0.,24.0,0.,24.0
1979-07-20 10:54:58.080 ,5,0,0.,24.0,1.,24.0,0.,24.0,0.,24.0
1979-07-20 10:55:22.080 ,4,1,0.,24.0,0.,24.0,0.,24.0,0.,24.0
1979-07-20 10:55:46.080 ,4,0,1.,24.0,0.,24.0,0.,24.0,0.,24.0
1979-07-20 10:56:10.080 ,3,1,0.,24.0,0.,24.0,1.,24.0,0.,24.0
1979-07-20 10:56:34.080 ,3,0,1.,24.0,0.,24.0,0.,24.0,0.,24.0
1979-07-20 10:56:58.080 ,2,1,0.,24.0,0.,24.0,0.,24.0,0.,24.0
1979-07-20 10:57:22.080 ,2,0,1.,24.0,0.,24.0,1.,24.0,0.,24.0
1979-07-20 10:57:46.080 ,1,1,0.,24.0,0.,24.0,0.,24.0,0.,24.0
1979-07-20 10:58:10.080 ,1,0,1.,24.0,1.,24.0,1.,24.0,0.,24.0
1979-07-20 10:58:34.080 ,0,1,1.,24.0,0.,24.0,0.,24.0,0.,24.0
1979-07-20 10:58:58.080 ,0,0,0.,24.0,0.,24.0,0.,24.0,0.,24.0
1979-07-20 10:59:22.080 ,0,1,1.,24.0,0.,24.0,0.,24.0,0.,24.0
1979-07-20 10:59:46.080 ,0,0,0.,24.0,0.,24.0,0.,24.0,0.,24.0
1979-07-20 11:00:10.080 ,1,1,1.,24.0,0.,24.0,0.,24.0,0.,24.0
1979-07-20 11:00:34.080 ,1,0,0.,24.0,0.,24.0,0.,24.0,0.,24.0
1979-07-20 11:00:58.080 ,2,1,0.,24.0,0.,24.0,0.,24.0,0.,24.0
1979-07-20 11:01:22.080 ,2,0,0.,24.0,0.,24.0,0.,24.0,0.,24.0
1979-07-20 11:01:46.080 ,3,1,0.,24.0,0.,24.0,0.,24.0,0.,24.0
1979-07-20 11:02:10.080 ,3,0,0.,24.0,0.,24.0,1.,24.0,0.,24.0
1979-07-20 11:02:34.080 ,4,1,0.,24.0,0.,24.0,0.,24.0,0.,24.0
1979-07-20 11:02:58.080 ,4,0,0.,24.0,0.,24.0,0.,24.0,0.,24.0
1979-07-20 11:03:22.080 ,5,1,1.,24.0,0.,24.0,0.,24.0,0.,24.0
1979-07-20 11:03:46.080 ,5,0,1.,24.0,0.,24.0,1.,24.0,0.,24.0
1979-07-20 11:04:10.080 ,6,1,0.,24.0,0.,24.0,0.,24.0,0.,24.0
1979-07-20 11:04:34.080 ,6,0,1.,24.0,0.,24.0,0.,24.0,0.,24.0
1979-07-20 11:04:58.080 ,7,1,12.,24.0,0.,24.0,0.,24.0,0.,24.0
1979-07-20 11:05:22.080 ,7,0,33.,24.0,0.,24.0,0.,24.0,0.,24.0
1979-07-20 11:05:46.080 ,7,1,23.,24.0,0.,24.0,0.,24.0,0.,24.0
1979-07-20 11:06:10.080 ,7,0,36.,24.0,0.,24.0,0.,24.0,0.,24.0
1979-07-20 11:06:34.080 ,6,1,19.,24.0,0.,24.0,0.,24.0,0.,24.0
1979-07-20 11:06:58.080 ,6,0,0.,24.0,0.,24.0,0.,24.0,0.,24.0
1979-07-20 11:07:22.080 ,5,1,0.,24.0,0.,24.0,0.,24.0,0.,24.0
1979-07-20 11:07:46.080 ,5,0,0.,24.0,0.,24.0,1.,24.0,0.,24.0
1979-07-20 11:08:10.080 ,4,1,0.,24.0,0.,24.0,0.,24.0,0.,24.0
1979-07-20 11:08:34.080 ,4,0,0.,24.0,0.,24.0,1.,24.0,0.,24.0
1979-07-20 11:08:58.080 ,3,1,0.,24.0,1.,24.0,0.,24.0,0.,24.0
1979-07-20 11:09:22.080 ,3,0,1.,24.0,0.,24.0,0.,24.0,0.,24.0
1979-07-20 11:09:46.080 ,2,1,1.,24.0,0.,24.0,1.,24.0,0.,24.0
1979-07-20 11:10:10.080 ,2,0,0.,24.0,0.,24.0,1.,24.0,0.,24.0
1979-07-20 11:10:34.080 ,1,1,1.,24.0,0.,24.0,0.,24.0,0.,24.0
1979-07-20 11:10:58.080 ,1,0,0.,24.0,0.,24.0,2.,24.0,0.,24.0
1979-07-20 11:11:22.080 ,0,1,0.,24.0,0.,24.0,0.,24.0,0.,24.0
1979-07-20 11:11:46.080 ,0,0,0.,24.0,0.,24.0,0.,24.0,0.,24.0
1979-07-20 11:12:10.080 ,0,1,0.,24.0,0.,24.0,0.,24.0,0.,24.0
1979-07-20 11:12:34.080 ,0,0,0.,24.0,0.,24.0,0.,24.0,0.,24.0
1979-07-20 11:12:58.080 ,1,1,0.,24.0,0.,24.0,0.,24.0,0.,24.0
1979-07-20 11:13:22.080 ,1,0,0.,24.0,0.,24.0,0.,24.0,0.,24.0
1979-07-20 11:13:46.080 ,2,1,0.,24.0,0.,24.0,0.,24.0,0.,24.0
1979-07-20 11:14:10.080 ,2,0,0.,24.0,0.,24.0,0.,24.0,0.,24.0
1979-07-20 11:14:34.080 ,3,1,0.,24.0,0.,24.0,0.,24.0,0.,24.0
1979-07-20 11:14:58.080 ,3,0,0.,24.0,1.,24.0,0.,24.0,0.,24.0
1979-07-20 11:15:22.080 ,4,1,0.,24.0,0.,24.0,0.,24.0,0.,24.0
1979-07-20 11:15:46.080 ,4,0,0.,24.0,0.,24.0,0.,24.0,0.,24.0
1979-07-20 11:16:10.080 ,5,1,0.,24.0,0.,24.0,0.,24.0,0.,24.0
1979-07-20 11:16:34.080 ,5,0,0.,24.0,0.,24.0,0.,24.0,0.,24.0
1979-07-20 11:16:58.080 ,6,1,0.,24.0,0.,24.0,0.,24.0,0.,24.0
1979-07-20 11:17:22.080 ,6,0,0.,24.0,0.,24.0,0.,24.0,0.,24.0
1979-07-20 11:17:46.080 ,7,1,3.,24.0,0.,24.0,0.,24.0,0.,24.0
1979-07-20 11:18:10.080 ,7,0,30.,24.0,0.,24.0,1.,24.0,0.,24.0
1979-07-20 11:18:34.080 ,7,1,22.,24.0,0.,24.0,0.,24.0,0.,24.0
1979-07-20 11:18:58.080 ,7,0,40.,24.0,0.,24.0,0.,24.0,0.,24.0
1979-07-20 11:19:22.080 ,6,1,28.,24.0,0.,24.0,0.,24.0,0.,24.0
1979-07-20 11:19:46.080 ,6,0,0.,24.0,0.,24.0,0.,24.0,0.,24.0
1979-07-20 11:20:10.080 ,5,1,0.,24.0,1.,24.0,1.,24.0,0.,24.0
1979-07-20 11:20:34.080 ,5,0,0.,24.0,0.,24.0,0.,24.0,0.,24.0
1979-07-20 11:20:58.080 ,4,1,0.,24.0,0.,24.0,0.,24.0,0.,24.0
1979-07-20 11:21:22.080 ,4,0,0.,24.0,0.,24.0,0.,24.0,0.,24.0
1979-07-20 11:21:46.080 ,3,1,0.,24.0,0.,24.0,0.,24.0,0.,24.0
1979-07-20 11:22:10.080 ,3,0,0.,24.0,0.,24.0,0.,24.0,0.,24.0
1979-07-20 11:22:34.080 ,2,1,0.,24.0,0.,24.0,0.,24.0,0.,24.0
1979-07-20 11:22:58.080 ,2,0,0.,24.0,0.,24.0,0.,24.0,0.,24.0
1979-07-20 11:23:22.080 ,1,1,0.,24.0,0.,24.0,0.,24.0,0.,24.0
1979-07-20 11:23:46.080 ,1,0,0.,24.0,1.,24.0,0.,24.0,0.,24.0
1979-07-20 11:24:10.080 ,0,1,0.,24.0,0.,24.0,0.,24.0,0.,24.0
1979-07-20 11:24:34.080 ,0,0,0.,24.0,0.,24.0,0.,24.0,0.,24.0
1979-07-20 11:24:58.080 ,0,1,0.,24.0,0.,24.0,1.,24.0,0.,24.0
1979-07-20 11:25:22.080 ,0,0,0.,24.0,0.,24.0,0.,24.0,0.,24.0
1979-07-20 11:25:46.080 ,1,1,0.,24.0,0.,24.0,0.,24.0,0.,24.0
1979-07-20 11:26:10.080 ,1,0,0.,24.0,1.,24.0,1.,24.0,0.,24.0
1979-07-20 11:26:34.080 ,2,1,0.,24.0,0.,24.0,0.,24.0,0.,24.0
1979-07-20 11:26:58.080 ,2,0,0.,24.0,0.,24.0,0.,24.0,0.,24.0
1979-07-20 11:27:22.080 ,3,1,0.,24.0,0.,24.0,0.,24.0,0.,24.0
1979-07-20 11:27:46.080 ,3,0,0.,24.0,0.,24.0,1.,24.0,0.,24.0
1979-07-20 11:28:10.080 ,4,1,0.,24.0,0.,24.0,1.,24.0,0.,24.0
1979-07-20 11:28:34.080 ,4,0,0.,24.0,0.,24.0,1.,24.0,0.,24.0
1979-07-20 11:28:58.080 ,5,1,0.,24.0,0.,24.0,0.,24.0,0.,24.0
1979-07-20 11:29:22.080 ,5,0,0.,24.0,0.,24.0,1.,24.0,0.,24.0
1979-07-20 11:29:46.080 ,6,1,0.,24.0,0.,24.0,0.,24.0,0.,24.0
1979-07-20 11:30:10.080 ,6,0,0.,24.0,0.,24.0,0.,24.0,0.,24.0
1979-07-20 11:30:34.080 ,7,0,7.,24.0,0.,24.0,0.,24.0,0.,24.0
1979-07-20 11:30:58.080 ,7,0,27.,24.0,0.,24.0,0.,24.0,0.,24.0
1979-07-20 11:31:22.080 ,5,1,18.,24.0,0.,24.0,0.,24.0,0.,24.0
1979-07-20 11:31:46.080 ,1,1,0.,24.0,1.,24.0,0.,24.0,0.,24.0
1979-07-20 11:32:10.080 ,2,1,0.,24.0,1.,24.0,0.,24.0,0.,24.0
1979-07-20 11:32:34.080 ,6,1,0.,24.0,0.,24.0,0.,24.0,0.,24.0
1979-07-20 11:32:58.080 ,5,1,13.,24.0,0.,24.0,0.,24.0,0.,24.0
1979-07-20 11:33:22.080 ,1,1,1.,24.0,0.,24.0,0.,24.0,0.,24.0
1979-07-20 11:33:46.080 ,2,1,0.,24.0,0.,24.0,0.,24.0,0.,24.0
1979-07-20 11:34:10.080 ,6,1,0.,24.0,0.,24.0,0.,24.0,0.,24.0
1979-07-20 11:34:34.080 ,5,1,13.,24.0,0.,24.0,1.,24.0,0.,24.0
1979-07-20 11:34:58.080 ,1,1,0.,24.0,0.,24.0,0.,24.0,0.,24.0
1979-07-20 11:35:22.080 ,2,1,0.,24.0,0.,24.0,0.,24.0,0.,24.0
1979-07-20 11:35:46.080 ,6,1,1.,24.0,0.,24.0,1.,24.0,0.,24.0
1979-07-20 11:36:10.080 ,5,1,14.,24.0,0.,24.0,0.,24.0,0.,24.0
1979-07-20 11:36:34.080 ,1,1,0.,24.0,0.,24.0,0.,24.0,0.,24.0
1979-07-20 11:36:58.080 ,2,1,0.,24.0,0.,24.0,0.,24.0,0.,24.0
1979-07-20 11:37:22.080 ,6,1,0.,24.0,0.,24.0,0.,24.0,0.,24.0
1979-07-20 11:37:46.080 ,5,1,15.,24.0,0.,24.0,0.,24.0,0.,24.0
1979-07-20 11:38:10.080 ,1,1,0.,24.0,0.,24.0,0.,24.0,0.,24.0
1979-07-20 11:38:34.080 ,2,1,0.,24.0,0.,24.0,0.,24.0,0.,24.0
1979-07-20 11:38:58.080 ,6,1,0.,24.0,0.,24.0,0.,24.0,0.,24.0